Year,Month,Day,Hour,Minute,Value (Times are PST for temperature in C)
2014,08,11,00,00,20.50
2014,08,11,00,05,20.80
2014,08,11,00,06,20.80
2014,08,11,00,07,20.80
2014,08,11,00,08,20.80
2014,08,11,00,09,20.90
2014,08,11,00,10,21.00
2014,08,11,00,11,21.00
2014,08,11,00,12,21.10
2014,08,11,00,13,21.10
2014,08,11,00,14,21.20
2014,08,11,00,15,21.30
2014,08,11,00,16,21.20
2014,08,11,00,17,21.20
2014,08,11,00,18,21.20
2014,08,11,00,19,21.30
2014,08,11,00,20,21.30
2014,08,11,00,21,21.30
2014,08,11,00,22,21.30
2014,08,11,00,23,21.30
2014,08,11,00,24,21.40
2014,08,11,00,25,21.40
2014,08,11,00,26,21.40
2014,08,11,00,27,21.40
2014,08,11,00,28,21.50
2014,08,11,00,29,21.50
2014,08,11,00,30,21.50
2014,08,11,00,31,21.60
2014,08,11,00,32,21.60
2014,08,11,00,33,21.60
2014,08,11,00,34,21.70
2014,08,11,00,35,21.90
2014,08,11,00,36,22.00
2014,08,11,00,37,22.10
2014,08,11,00,38,22.10
2014,08,11,00,39,22.20
2014,08,11,00,40,22.20
2014,08,11,00,41,22.20
2014,08,11,00,42,22.30
2014,08,11,00,43,22.30
2014,08,11,00,44,22.30
2014,08,11,00,45,22.30
2014,08,11,00,46,22.20
2014,08,11,00,47,22.20
2014,08,11,00,48,22.10
2014,08,11,00,49,22.10
2014,08,11,00,50,22.10
2014,08,11,00,51,22.10
2014,08,11,00,52,22.00
2014,08,11,00,53,21.90
2014,08,11,00,54,21.80
2014,08,11,00,55,21.80
2014,08,11,00,56,21.70
2014,08,11,00,57,21.70
2014,08,11,00,58,21.70
2014,08,11,00,59,21.60
2014,08,11,01,00,21.60
2014,08,11,01,01,21.50
2014,08,11,01,02,21.50
2014,08,11,01,03,21.40
2014,08,11,01,04,21.30
2014,08,11,01,05,21.30
2014,08,11,01,06,21.30
2014,08,11,01,07,21.30
2014,08,11,01,08,21.40
2014,08,11,01,09,21.40
2014,08,11,01,10,21.40
2014,08,11,01,11,21.40
2014,08,11,01,12,21.40
2014,08,11,01,13,21.50
2014,08,11,01,14,21.50
2014,08,11,01,15,21.50
2014,08,11,01,16,21.50
2014,08,11,01,17,21.40
2014,08,11,01,18,21.40
2014,08,11,01,19,21.40
2014,08,11,01,20,21.40
2014,08,11,01,21,21.40
2014,08,11,01,22,21.40
2014,08,11,01,23,21.40
2014,08,11,01,24,21.40
2014,08,11,01,25,21.40
2014,08,11,01,26,21.40
2014,08,11,01,27,21.40
2014,08,11,01,28,21.40
2014,08,11,01,29,21.40
2014,08,11,01,30,21.40
2014,08,11,01,31,21.40
2014,08,11,01,32,21.40
2014,08,11,01,33,21.40
2014,08,11,01,34,21.30
2014,08,11,01,35,21.30
2014,08,11,01,36,21.30
2014,08,11,01,37,21.30
2014,08,11,01,38,21.30
2014,08,11,01,39,21.30
2014,08,11,01,40,21.30
2014,08,11,01,41,21.30
2014,08,11,01,42,21.30
2014,08,11,01,43,21.20
2014,08,11,01,44,21.20
2014,08,11,01,45,21.10
2014,08,11,01,46,21.10
2014,08,11,01,47,21.00
2014,08,11,01,48,21.00
2014,08,11,01,49,20.90
2014,08,11,01,50,20.90
2014,08,11,01,51,20.90
2014,08,11,01,52,20.90
2014,08,11,01,53,20.90
2014,08,11,01,54,20.80
2014,08,11,01,55,20.80
2014,08,11,01,56,20.70
2014,08,11,01,57,20.70
2014,08,11,01,58,20.60
2014,08,11,01,59,20.60
2014,08,11,02,00,20.50
2014,08,11,02,01,20.50
2014,08,11,02,02,20.40
2014,08,11,02,03,20.40
2014,08,11,02,04,20.40
2014,08,11,02,05,20.40
2014,08,11,02,06,20.40
2014,08,11,02,07,20.30
2014,08,11,02,08,20.40
2014,08,11,02,09,20.40
2014,08,11,02,10,20.40
2014,08,11,02,11,20.40
2014,08,11,02,12,20.40
2014,08,11,02,13,20.30
2014,08,11,02,14,20.30
2014,08,11,02,15,20.30
2014,08,11,02,16,20.40
2014,08,11,02,17,20.40
2014,08,11,02,18,20.40
2014,08,11,02,19,20.40
2014,08,11,02,20,20.40
2014,08,11,02,21,20.40
2014,08,11,02,22,20.30
2014,08,11,02,23,20.30
2014,08,11,02,24,20.20
2014,08,11,02,25,20.20
2014,08,11,02,26,20.20
2014,08,11,02,27,20.10
2014,08,11,02,28,20.10
2014,08,11,02,29,20.00
2014,08,11,02,30,20.00
2014,08,11,02,31,20.10
2014,08,11,02,32,20.10
2014,08,11,02,33,20.10
2014,08,11,02,34,20.10
2014,08,11,02,35,20.10
2014,08,11,02,36,20.00
2014,08,11,02,37,20.00
2014,08,11,02,38,20.00
2014,08,11,02,39,19.90
2014,08,11,02,40,19.90
2014,08,11,02,41,19.90
2014,08,11,02,42,19.90
2014,08,11,02,43,19.80
2014,08,11,02,44,19.70
2014,08,11,02,45,19.60
2014,08,11,02,46,19.60
2014,08,11,02,47,19.70
2014,08,11,02,48,19.80
2014,08,11,02,49,19.80
2014,08,11,02,50,19.80
2014,08,11,02,51,19.70
2014,08,11,02,52,19.70
2014,08,11,02,53,19.60
2014,08,11,02,54,19.50
2014,08,11,02,55,19.50
2014,08,11,02,56,19.40
2014,08,11,02,57,19.40
2014,08,11,02,58,19.30
2014,08,11,02,59,19.20
2014,08,11,03,00,19.20
2014,08,11,03,01,19.10
2014,08,11,03,02,19.00
2014,08,11,03,03,19.00
2014,08,11,03,04,18.90
2014,08,11,03,05,18.90
2014,08,11,03,06,18.90
2014,08,11,03,07,18.80
2014,08,11,03,08,18.80
2014,08,11,03,09,18.80
2014,08,11,03,10,18.80
2014,08,11,03,11,18.80
2014,08,11,03,12,18.70
2014,08,11,03,13,18.70
2014,08,11,03,14,18.70
2014,08,11,03,15,18.70
2014,08,11,03,16,18.70
2014,08,11,03,17,18.70
2014,08,11,03,18,18.70
2014,08,11,03,19,18.70
2014,08,11,03,20,18.80
2014,08,11,03,21,18.80
2014,08,11,03,22,18.80
2014,08,11,03,23,18.80
2014,08,11,03,24,18.80
2014,08,11,03,25,18.80
2014,08,11,03,26,18.80
2014,08,11,03,27,18.80
2014,08,11,03,28,18.70
2014,08,11,03,29,18.70
2014,08,11,03,30,18.60
2014,08,11,03,31,18.60
2014,08,11,03,32,18.50
2014,08,11,03,33,18.40
2014,08,11,03,34,18.40
2014,08,11,03,35,18.30
2014,08,11,03,36,18.30
2014,08,11,03,37,18.30
2014,08,11,03,38,18.20
2014,08,11,03,39,18.20
2014,08,11,03,40,18.20
2014,08,11,03,41,18.10
2014,08,11,03,42,18.10
2014,08,11,03,43,18.10
2014,08,11,03,44,18.10
2014,08,11,03,45,18.10
2014,08,11,03,46,18.10
2014,08,11,03,47,18.10
2014,08,11,03,48,18.10
2014,08,11,03,49,18.10
2014,08,11,03,50,18.10
2014,08,11,03,51,18.10
2014,08,11,03,52,18.10
2014,08,11,03,53,18.10
2014,08,11,03,54,18.10
2014,08,11,03,55,18.10
2014,08,11,03,56,18.10
2014,08,11,03,57,18.10
2014,08,11,03,58,18.10
2014,08,11,03,59,18.10
2014,08,11,04,00,18.10
2014,08,11,04,01,18.10
2014,08,11,04,02,18.10
2014,08,11,04,03,18.00
2014,08,11,04,04,18.00
2014,08,11,04,05,18.00
2014,08,11,04,06,17.90
2014,08,11,04,07,17.90
2014,08,11,04,08,17.90
2014,08,11,04,09,17.90
2014,08,11,04,10,17.80
2014,08,11,04,11,17.80
2014,08,11,04,12,17.80
2014,08,11,04,13,17.70
2014,08,11,04,14,17.70
2014,08,11,04,15,17.70
2014,08,11,04,16,17.60
2014,08,11,04,17,17.60
2014,08,11,04,18,17.60
2014,08,11,04,19,17.50
2014,08,11,04,20,17.50
2014,08,11,04,21,17.50
2014,08,11,04,22,17.50
2014,08,11,04,23,17.50
2014,08,11,04,24,17.40
2014,08,11,04,25,17.40
2014,08,11,04,26,17.40
2014,08,11,04,27,17.40
2014,08,11,04,28,17.40
2014,08,11,04,29,17.30
2014,08,11,04,30,17.30
2014,08,11,04,31,17.30
2014,08,11,04,32,17.30
2014,08,11,04,33,17.30
2014,08,11,04,34,17.30
2014,08,11,04,35,17.30
2014,08,11,04,36,17.30
2014,08,11,04,37,17.30
2014,08,11,04,38,17.20
2014,08,11,04,39,17.20
2014,08,11,04,40,17.20
2014,08,11,04,41,17.20
2014,08,11,04,42,17.20
2014,08,11,04,43,17.20
2014,08,11,04,44,17.20
2014,08,11,04,45,17.20
2014,08,11,04,46,17.30
2014,08,11,04,47,17.30
2014,08,11,04,48,17.30
2014,08,11,04,49,17.30
2014,08,11,04,50,17.20
2014,08,11,04,51,17.20
2014,08,11,04,52,17.20
2014,08,11,04,53,17.20
2014,08,11,04,54,17.20
2014,08,11,04,55,17.10
2014,08,11,04,56,17.10
2014,08,11,04,57,17.10
2014,08,11,04,58,17.00
2014,08,11,04,59,16.90
2014,08,11,05,00,16.90
2014,08,11,05,01,17.00
2014,08,11,05,02,17.00
2014,08,11,05,03,17.00
2014,08,11,05,04,17.00
2014,08,11,05,05,17.00
2014,08,11,05,06,17.00
2014,08,11,05,07,17.00
2014,08,11,05,08,17.00
2014,08,11,05,09,17.00
2014,08,11,05,10,17.00
2014,08,11,05,11,17.00
2014,08,11,05,12,16.90
2014,08,11,05,13,16.90
2014,08,11,05,14,16.90
2014,08,11,05,15,16.90
2014,08,11,05,16,16.90
2014,08,11,05,17,16.90
2014,08,11,05,18,16.90
2014,08,11,05,19,16.90
2014,08,11,05,20,16.80
2014,08,11,05,21,16.80
2014,08,11,05,22,16.80
2014,08,11,05,23,16.70
2014,08,11,05,24,16.70
2014,08,11,05,25,16.70
2014,08,11,05,26,16.70
2014,08,11,05,27,16.70
2014,08,11,05,28,16.60
2014,08,11,05,29,16.60
2014,08,11,05,30,16.60
2014,08,11,05,31,16.60
2014,08,11,05,32,16.50
2014,08,11,05,33,16.50
2014,08,11,05,34,16.50
2014,08,11,05,35,16.40
2014,08,11,05,36,16.40
2014,08,11,05,37,16.40
2014,08,11,05,38,16.40
2014,08,11,05,39,16.40
2014,08,11,05,40,16.40
2014,08,11,05,41,16.40
2014,08,11,05,42,16.30
2014,08,11,05,43,16.30
2014,08,11,05,44,16.30
2014,08,11,05,45,16.30
2014,08,11,05,46,16.30
2014,08,11,05,47,16.30
2014,08,11,05,48,16.30
2014,08,11,05,49,16.30
2014,08,11,05,50,16.30
2014,08,11,05,51,16.30
2014,08,11,05,52,16.30
2014,08,11,05,53,16.30
2014,08,11,05,54,16.30
2014,08,11,05,55,16.30
2014,08,11,05,56,16.30
2014,08,11,05,57,16.30
2014,08,11,05,58,16.30
2014,08,11,05,59,16.30
2014,08,11,06,00,16.30
2014,08,11,06,01,16.30
2014,08,11,06,02,16.30
2014,08,11,06,03,16.30
2014,08,11,06,04,16.30
2014,08,11,06,05,16.30
2014,08,11,06,06,16.30
2014,08,11,06,07,16.30
2014,08,11,06,08,16.30
2014,08,11,06,09,16.30
2014,08,11,06,10,16.30
2014,08,11,06,11,16.30
2014,08,11,06,12,16.30
2014,08,11,06,13,16.30
2014,08,11,06,14,16.30
2014,08,11,06,15,16.30
2014,08,11,06,16,16.30
2014,08,11,06,17,16.30
2014,08,11,06,18,16.30
2014,08,11,06,19,16.30
2014,08,11,06,20,16.40
2014,08,11,06,21,16.40
2014,08,11,06,22,16.40
2014,08,11,06,23,16.40
2014,08,11,06,24,16.40
2014,08,11,06,25,16.40
2014,08,11,06,26,16.40
2014,08,11,06,27,16.40
2014,08,11,06,28,16.40
2014,08,11,06,29,16.40
2014,08,11,06,30,16.40
2014,08,11,06,31,16.40
2014,08,11,06,32,16.40
2014,08,11,06,33,16.40
2014,08,11,06,34,16.40
2014,08,11,06,35,16.50
2014,08,11,06,36,16.50
2014,08,11,06,37,16.50
2014,08,11,06,38,16.50
2014,08,11,06,39,16.50
2014,08,11,06,40,16.50
2014,08,11,06,41,16.60
2014,08,11,06,42,16.60
2014,08,11,06,43,16.60
2014,08,11,06,44,16.60
2014,08,11,06,45,16.60
2014,08,11,06,46,16.60
2014,08,11,06,47,16.70
2014,08,11,06,48,16.70
2014,08,11,06,49,16.70
2014,08,11,06,50,16.70
2014,08,11,06,51,16.70
2014,08,11,06,52,16.80
2014,08,11,06,53,16.80
2014,08,11,06,54,16.80
2014,08,11,06,55,16.80
2014,08,11,06,56,16.80
2014,08,11,06,57,16.80
2014,08,11,06,58,16.80
2014,08,11,06,59,16.90
2014,08,11,07,00,16.90
2014,08,11,07,01,16.90
2014,08,11,07,02,16.90
2014,08,11,07,03,16.90
2014,08,11,07,04,17.00
2014,08,11,07,05,17.00
2014,08,11,07,06,17.10
2014,08,11,07,07,17.10
2014,08,11,07,08,17.10
2014,08,11,07,09,17.10
2014,08,11,07,10,17.10
2014,08,11,07,11,17.20
2014,08,11,07,12,17.20
2014,08,11,07,13,17.20
2014,08,11,07,14,17.20
2014,08,11,07,15,17.30
2014,08,11,07,16,17.30
2014,08,11,07,17,17.30
2014,08,11,07,18,17.40
2014,08,11,07,19,17.40
2014,08,11,07,20,17.40
2014,08,11,07,21,17.50
2014,08,11,07,22,17.50
2014,08,11,07,23,17.50
2014,08,11,07,24,17.60
2014,08,11,07,25,17.60
2014,08,11,07,26,17.70
2014,08,11,07,27,17.70
2014,08,11,07,28,17.70
2014,08,11,07,29,17.70
2014,08,11,07,30,17.80
2014,08,11,07,31,17.80
2014,08,11,07,32,17.90
2014,08,11,07,33,17.90
2014,08,11,07,34,18.00
2014,08,11,07,35,18.10
2014,08,11,07,36,18.10
2014,08,11,07,37,18.20
2014,08,11,07,38,18.20
2014,08,11,07,39,18.30
2014,08,11,07,40,18.30
2014,08,11,07,41,18.40
2014,08,11,07,42,18.50
2014,08,11,07,43,18.60
2014,08,11,07,44,18.60
2014,08,11,07,45,18.70
2014,08,11,07,46,18.80
2014,08,11,07,47,18.80
2014,08,11,07,48,18.90
2014,08,11,07,49,19.00
2014,08,11,07,50,19.00
2014,08,11,07,51,19.10
2014,08,11,07,52,19.30
2014,08,11,07,53,19.40
2014,08,11,07,54,19.40
2014,08,11,07,55,19.50
2014,08,11,07,56,19.60
2014,08,11,07,57,19.70
2014,08,11,07,58,19.70
2014,08,11,07,59,19.70
2014,08,11,08,00,19.80
2014,08,11,08,01,19.80
2014,08,11,08,02,19.90
2014,08,11,08,03,20.00
2014,08,11,08,04,20.10
2014,08,11,08,05,20.20
2014,08,11,08,06,20.20
2014,08,11,08,07,20.30
2014,08,11,08,08,20.50
2014,08,11,08,09,20.50
2014,08,11,08,10,20.60
2014,08,11,08,11,20.70
2014,08,11,08,12,20.70
2014,08,11,08,13,20.80
2014,08,11,08,14,20.80
2014,08,11,08,15,20.80
2014,08,11,08,16,20.90
2014,08,11,08,17,20.90
2014,08,11,08,18,21.00
2014,08,11,08,19,21.10
2014,08,11,08,20,21.10
2014,08,11,08,21,21.10
2014,08,11,08,22,21.20
2014,08,11,08,23,21.20
2014,08,11,08,24,21.30
2014,08,11,08,25,21.30
2014,08,11,08,26,21.30
2014,08,11,08,27,21.30
2014,08,11,08,28,21.40
2014,08,11,08,29,21.50
2014,08,11,08,30,21.60
2014,08,11,08,31,21.60
2014,08,11,08,32,21.60
2014,08,11,08,33,21.70
2014,08,11,08,34,21.70
2014,08,11,08,35,21.80
2014,08,11,08,36,21.90
2014,08,11,08,37,21.90
2014,08,11,08,38,22.00
2014,08,11,08,39,22.10
2014,08,11,08,40,22.20
2014,08,11,08,41,22.20
2014,08,11,08,42,22.30
2014,08,11,08,43,22.40
2014,08,11,08,44,22.40
2014,08,11,08,45,22.50
2014,08,11,08,46,22.60
2014,08,11,08,47,22.60
2014,08,11,08,48,22.70
2014,08,11,08,49,22.70
2014,08,11,08,50,22.60
2014,08,11,08,51,22.60
2014,08,11,08,52,22.50
2014,08,11,08,53,22.40
2014,08,11,08,54,22.30
2014,08,11,08,55,22.20
2014,08,11,08,56,22.10
2014,08,11,08,57,22.10
2014,08,11,08,58,22.00
2014,08,11,08,59,22.00
2014,08,11,09,00,22.00
2014,08,11,09,01,22.10
2014,08,11,09,02,22.00
2014,08,11,09,03,22.00
2014,08,11,09,04,21.90
2014,08,11,09,05,21.90
2014,08,11,09,06,21.90
2014,08,11,09,07,21.90
2014,08,11,09,08,21.90
2014,08,11,09,09,22.00
2014,08,11,09,10,22.00
2014,08,11,09,11,22.00
2014,08,11,09,12,22.10
2014,08,11,09,13,22.10
2014,08,11,09,14,22.10
2014,08,11,09,15,22.10
2014,08,11,09,16,22.10
2014,08,11,09,17,22.10
2014,08,11,09,18,22.10
2014,08,11,09,19,22.10
2014,08,11,09,20,22.10
2014,08,11,09,21,22.20
2014,08,11,09,22,22.20
2014,08,11,09,23,22.30
2014,08,11,09,24,22.30
2014,08,11,09,25,22.40
2014,08,11,09,26,22.40
2014,08,11,09,27,22.40
2014,08,11,09,28,22.50
2014,08,11,09,29,22.50
2014,08,11,09,30,22.50
2014,08,11,09,31,22.60
2014,08,11,09,32,22.50
2014,08,11,09,33,22.50
2014,08,11,09,34,22.40
2014,08,11,09,35,22.40
2014,08,11,09,36,22.30
2014,08,11,09,37,22.30
2014,08,11,09,38,22.30
2014,08,11,09,39,22.30
2014,08,11,09,40,22.30
2014,08,11,09,41,22.40
2014,08,11,09,42,22.40
2014,08,11,09,43,22.40
2014,08,11,09,44,22.30
2014,08,11,09,45,22.30
2014,08,11,09,46,22.30
2014,08,11,09,47,22.20
2014,08,11,09,48,22.20
2014,08,11,09,49,22.10
2014,08,11,09,50,22.00
2014,08,11,09,51,22.00
2014,08,11,09,52,22.00
2014,08,11,09,53,22.10
2014,08,11,09,54,22.10
2014,08,11,09,55,22.20
2014,08,11,09,56,22.20
2014,08,11,09,57,22.30
2014,08,11,09,58,22.40
2014,08,11,09,59,22.50
2014,08,11,10,00,22.70
2014,08,11,10,01,22.80
2014,08,11,10,02,22.90
2014,08,11,10,03,22.90
2014,08,11,10,04,23.00
2014,08,11,10,05,22.90
2014,08,11,10,06,22.90
2014,08,11,10,07,22.90
2014,08,11,10,08,22.90
2014,08,11,10,09,23.00
2014,08,11,10,10,23.00
2014,08,11,10,11,23.20
2014,08,11,10,12,23.30
2014,08,11,10,13,23.30
2014,08,11,10,14,23.40
2014,08,11,10,15,23.40
2014,08,11,10,16,23.30
2014,08,11,10,17,23.20
2014,08,11,10,18,23.10
2014,08,11,10,19,23.10
2014,08,11,10,20,23.00
2014,08,11,10,21,22.90
2014,08,11,10,22,22.90
2014,08,11,10,23,22.90
2014,08,11,10,24,22.90
2014,08,11,10,25,22.90
2014,08,11,10,26,22.90
2014,08,11,10,27,22.90
2014,08,11,10,28,22.90
2014,08,11,10,29,23.00
2014,08,11,10,30,23.00
2014,08,11,10,31,22.90
2014,08,11,10,32,23.00
2014,08,11,10,33,23.00
2014,08,11,10,34,23.00
2014,08,11,10,35,23.10
2014,08,11,10,36,23.10
2014,08,11,10,37,23.10
2014,08,11,10,38,23.10
2014,08,11,10,39,23.10
2014,08,11,10,40,23.10
2014,08,11,10,41,23.20
2014,08,11,10,42,23.30
2014,08,11,10,43,23.30
2014,08,11,10,44,23.40
2014,08,11,10,45,23.50
2014,08,11,10,46,23.50
2014,08,11,10,47,23.60
2014,08,11,10,48,23.50
2014,08,11,10,49,23.40
2014,08,11,10,50,23.30
2014,08,11,10,51,23.30
2014,08,11,10,52,23.20
2014,08,11,10,53,23.20
2014,08,11,10,54,23.20
2014,08,11,10,55,23.30
2014,08,11,10,56,23.40
2014,08,11,10,57,23.40
2014,08,11,10,58,23.50
2014,08,11,10,59,23.50
2014,08,11,11,00,23.60
2014,08,11,11,01,23.60
2014,08,11,11,02,23.70
2014,08,11,11,03,23.70
2014,08,11,11,04,23.70
2014,08,11,11,05,23.70
2014,08,11,11,06,23.80
2014,08,11,11,07,23.80
2014,08,11,11,08,23.80
2014,08,11,11,09,23.80
2014,08,11,11,10,23.70
2014,08,11,11,11,23.70
2014,08,11,11,12,23.70
2014,08,11,11,13,23.70
2014,08,11,11,14,23.70
2014,08,11,11,15,23.70
2014,08,11,11,16,23.60
2014,08,11,11,17,23.60
2014,08,11,11,18,23.70
2014,08,11,11,19,23.60
2014,08,11,11,20,23.70
2014,08,11,11,21,23.70
2014,08,11,11,22,23.70
2014,08,11,11,23,23.80
2014,08,11,11,24,23.80
2014,08,11,11,25,23.80
2014,08,11,11,26,23.70
2014,08,11,11,27,23.70
2014,08,11,11,28,23.70
2014,08,11,11,29,23.70
2014,08,11,11,30,23.70
2014,08,11,11,31,23.70
2014,08,11,11,32,23.70
2014,08,11,11,33,23.70
2014,08,11,11,34,23.70
2014,08,11,11,35,23.70
2014,08,11,11,36,23.70
2014,08,11,11,37,23.70
2014,08,11,11,38,23.80
2014,08,11,11,39,23.90
2014,08,11,11,40,23.90
2014,08,11,11,41,23.90
2014,08,11,11,42,23.90
2014,08,11,11,43,23.90
2014,08,11,11,44,24.00
2014,08,11,11,45,24.00
2014,08,11,11,46,24.00
2014,08,11,11,47,24.10
2014,08,11,11,48,24.20
2014,08,11,11,49,24.30
2014,08,11,11,50,24.30
2014,08,11,11,51,24.30
2014,08,11,11,52,24.20
2014,08,11,11,53,24.10
2014,08,11,11,54,24.10
2014,08,11,11,55,24.10
2014,08,11,11,56,24.10
2014,08,11,11,57,24.00
2014,08,11,11,58,24.00
2014,08,11,11,59,23.90
2014,08,11,12,00,23.90
2014,08,11,12,01,23.90
2014,08,11,12,02,23.90
2014,08,11,12,03,23.90
2014,08,11,12,04,23.90
2014,08,11,12,05,23.90
2014,08,11,12,06,23.90
2014,08,11,12,07,24.00
2014,08,11,12,08,24.10
2014,08,11,12,09,24.20
2014,08,11,12,10,24.30
2014,08,11,12,11,24.40
2014,08,11,12,12,24.50
2014,08,11,12,13,24.60
2014,08,11,12,14,24.60
2014,08,11,12,15,24.70
2014,08,11,12,16,24.80
2014,08,11,12,17,24.80
2014,08,11,12,18,24.80
2014,08,11,12,19,24.70
2014,08,11,12,20,24.60
2014,08,11,12,21,24.40
2014,08,11,12,22,24.20
2014,08,11,12,23,24.10
2014,08,11,12,24,24.10
2014,08,11,12,25,24.00
2014,08,11,12,26,24.00
2014,08,11,12,27,24.00
2014,08,11,12,28,24.00
2014,08,11,12,29,24.00
2014,08,11,12,30,24.00
2014,08,11,12,31,23.90
2014,08,11,12,32,23.90
2014,08,11,12,33,24.00
2014,08,11,12,34,24.00
2014,08,11,12,35,24.00
2014,08,11,12,36,24.00
2014,08,11,12,37,24.00
2014,08,11,12,38,24.10
2014,08,11,12,39,24.10
2014,08,11,12,40,24.30
2014,08,11,12,41,24.40
2014,08,11,12,42,24.50
2014,08,11,12,43,24.50
2014,08,11,12,44,24.50
2014,08,11,12,45,24.50
2014,08,11,12,46,24.50
2014,08,11,12,47,24.40
2014,08,11,12,48,24.30
2014,08,11,12,49,24.20
2014,08,11,12,50,24.20
2014,08,11,12,51,24.10
2014,08,11,12,52,24.10
2014,08,11,12,53,24.10
2014,08,11,12,54,24.10
2014,08,11,12,55,24.10
2014,08,11,12,56,24.10
2014,08,11,12,57,24.20
2014,08,11,12,58,24.20
2014,08,11,12,59,24.30
2014,08,11,13,00,24.40
2014,08,11,13,01,24.60
2014,08,11,13,02,24.80
2014,08,11,13,03,25.00
2014,08,11,13,04,25.20
2014,08,11,13,05,25.30
2014,08,11,13,06,25.40
2014,08,11,13,07,25.50
2014,08,11,13,08,25.50
2014,08,11,13,09,25.50
2014,08,11,13,10,25.60
2014,08,11,13,11,25.60
2014,08,11,13,12,25.60
2014,08,11,13,13,25.60
2014,08,11,13,14,25.60
2014,08,11,13,15,25.60
2014,08,11,13,16,25.60
2014,08,11,13,17,25.70
2014,08,11,13,18,25.80
2014,08,11,13,19,25.80
2014,08,11,13,20,25.80
2014,08,11,13,21,25.60
2014,08,11,13,22,25.40
2014,08,11,13,23,25.20
2014,08,11,13,24,25.00
2014,08,11,13,25,24.90
2014,08,11,13,26,24.80
2014,08,11,13,27,24.80
2014,08,11,13,28,24.80
2014,08,11,13,29,24.90
2014,08,11,13,30,24.90
2014,08,11,13,31,24.90
2014,08,11,13,32,25.00
2014,08,11,13,33,25.00
2014,08,11,13,34,25.10
2014,08,11,13,35,25.20
2014,08,11,13,36,25.20
2014,08,11,13,37,25.20
2014,08,11,13,38,25.20
2014,08,11,13,39,25.20
2014,08,11,13,40,25.30
2014,08,11,13,41,25.40
2014,08,11,13,42,25.60
2014,08,11,13,43,25.60
2014,08,11,13,44,25.60
2014,08,11,13,45,25.70
2014,08,11,13,46,25.60
2014,08,11,13,47,25.60
2014,08,11,13,48,25.60
2014,08,11,13,49,25.60
2014,08,11,13,50,25.60
2014,08,11,13,51,25.70
2014,08,11,13,52,25.70
2014,08,11,13,53,25.80
2014,08,11,13,54,25.90
2014,08,11,13,55,25.90
2014,08,11,13,56,25.90
2014,08,11,13,57,26.00
2014,08,11,13,58,26.00
2014,08,11,13,59,26.10
2014,08,11,14,00,26.10
2014,08,11,14,01,26.10
2014,08,11,14,02,26.10
2014,08,11,14,03,26.10
2014,08,11,14,04,26.20
2014,08,11,14,05,26.20
2014,08,11,14,06,26.20
2014,08,11,14,07,26.30
2014,08,11,14,08,26.40
2014,08,11,14,09,26.50
2014,08,11,14,10,26.70
2014,08,11,14,11,26.80
2014,08,11,14,12,26.90
2014,08,11,14,13,27.00
2014,08,11,14,14,27.10
2014,08,11,14,15,27.20
2014,08,11,14,16,27.30
2014,08,11,14,17,27.40
2014,08,11,14,18,27.50
2014,08,11,14,19,27.50
2014,08,11,14,20,27.60
2014,08,11,14,21,27.60
2014,08,11,14,22,27.60
2014,08,11,14,23,27.50
2014,08,11,14,24,27.40
2014,08,11,14,25,27.30
2014,08,11,14,26,27.20
2014,08,11,14,27,27.10
2014,08,11,14,28,27.00
2014,08,11,14,29,27.00
2014,08,11,14,30,27.10
2014,08,11,14,31,27.10
2014,08,11,14,32,27.30
2014,08,11,14,33,27.40
2014,08,11,14,34,27.50
2014,08,11,14,35,27.60
2014,08,11,14,36,27.80
2014,08,11,14,37,27.90
2014,08,11,14,38,28.10
2014,08,11,14,39,28.20
2014,08,11,14,40,28.10
2014,08,11,14,41,28.10
2014,08,11,14,42,28.10
2014,08,11,14,43,28.10
2014,08,11,14,44,28.10
2014,08,11,14,45,28.20
2014,08,11,14,46,28.20
2014,08,11,14,47,28.10
2014,08,11,14,48,28.00
2014,08,11,14,49,27.90
2014,08,11,14,50,27.80
2014,08,11,14,51,27.80
2014,08,11,14,52,27.80
2014,08,11,14,53,27.90
2014,08,11,14,54,27.90
2014,08,11,14,55,27.90
2014,08,11,14,56,27.90
2014,08,11,14,57,28.00
2014,08,11,14,58,28.10
2014,08,11,14,59,28.10
2014,08,11,15,00,28.10
2014,08,11,15,01,28.10
2014,08,11,15,02,28.10
2014,08,11,15,03,28.10
2014,08,11,15,04,28.10
2014,08,11,15,05,28.10
2014,08,11,15,06,28.10
2014,08,11,15,07,28.20
2014,08,11,15,08,28.30
2014,08,11,15,09,28.40
2014,08,11,15,10,28.40
2014,08,11,15,11,28.50
2014,08,11,15,12,28.60
2014,08,11,15,13,28.50
2014,08,11,15,14,28.40
2014,08,11,15,15,28.40
2014,08,11,15,16,28.50
2014,08,11,15,17,28.50
2014,08,11,15,18,28.50
2014,08,11,15,19,28.50
2014,08,11,15,20,28.50
2014,08,11,15,21,28.60
2014,08,11,15,22,28.70
2014,08,11,15,23,28.70
2014,08,11,15,24,28.60
2014,08,11,15,25,28.50
2014,08,11,15,26,28.40
2014,08,11,15,27,28.30
2014,08,11,15,28,28.10
2014,08,11,15,29,28.00
2014,08,11,15,30,27.90
2014,08,11,15,31,27.80
2014,08,11,15,32,27.80
2014,08,11,15,33,27.70
2014,08,11,15,34,27.60
2014,08,11,15,35,27.50
2014,08,11,15,36,27.40
2014,08,11,15,37,27.30
2014,08,11,15,38,27.20
2014,08,11,15,39,27.00
2014,08,11,15,40,26.90
2014,08,11,15,41,26.70
2014,08,11,15,42,26.60
2014,08,11,15,43,26.60
2014,08,11,15,44,26.50
2014,08,11,15,45,26.40
2014,08,11,15,46,26.40
2014,08,11,15,47,26.40
2014,08,11,15,48,26.40
2014,08,11,15,49,26.40
2014,08,11,15,50,26.50
2014,08,11,15,51,26.50
2014,08,11,15,52,26.60
2014,08,11,15,53,26.70
2014,08,11,15,54,26.70
2014,08,11,15,55,26.70
2014,08,11,15,56,26.80
2014,08,11,15,57,26.90
2014,08,11,15,58,26.90
2014,08,11,15,59,26.90
2014,08,11,16,00,27.00
2014,08,11,16,01,27.00
2014,08,11,16,02,27.10
2014,08,11,16,03,27.10
2014,08,11,16,04,27.20
2014,08,11,16,05,27.20
2014,08,11,16,06,27.30
2014,08,11,16,07,27.40
2014,08,11,16,08,27.50
2014,08,11,16,09,27.50
2014,08,11,16,10,27.60
2014,08,11,16,11,27.70
2014,08,11,16,12,27.70
2014,08,11,16,13,27.70
2014,08,11,16,14,27.80
2014,08,11,16,15,27.80
2014,08,11,16,16,27.90
2014,08,11,16,17,27.90
2014,08,11,16,18,27.90
2014,08,11,16,19,27.90
2014,08,11,16,20,27.90
2014,08,11,16,21,27.90
2014,08,11,16,22,27.90
2014,08,11,16,23,27.90
2014,08,11,16,24,27.90
2014,08,11,16,25,27.90
2014,08,11,16,26,27.90
2014,08,11,16,27,27.90
2014,08,11,16,28,27.90
2014,08,11,16,29,27.80
2014,08,11,16,30,27.80
2014,08,11,16,31,27.80
2014,08,11,16,32,27.70
2014,08,11,16,33,27.70
2014,08,11,16,34,27.70
2014,08,11,16,35,27.60
2014,08,11,16,36,27.60
2014,08,11,16,37,27.60
2014,08,11,16,38,27.60
2014,08,11,16,39,27.60
2014,08,11,16,40,27.50
2014,08,11,16,41,27.50
2014,08,11,16,42,27.50
2014,08,11,16,43,27.40
2014,08,11,16,44,27.40
2014,08,11,16,45,27.30
2014,08,11,16,46,27.30
2014,08,11,16,47,27.30
2014,08,11,16,48,27.30
2014,08,11,16,49,27.30
2014,08,11,16,50,27.30
2014,08,11,16,51,27.30
2014,08,11,16,52,27.30
2014,08,11,16,53,27.30
2014,08,11,16,54,27.30
2014,08,11,16,55,27.30
2014,08,11,16,56,27.30
2014,08,11,16,57,27.20
2014,08,11,16,58,27.20
2014,08,11,16,59,27.20
2014,08,11,17,00,27.20
2014,08,11,17,01,27.30
2014,08,11,17,02,27.30
2014,08,11,17,03,27.30
2014,08,11,17,04,27.30
2014,08,11,17,05,27.30
2014,08,11,17,06,27.30
2014,08,11,17,07,27.30
2014,08,11,17,08,27.30
2014,08,11,17,09,27.40
2014,08,11,17,10,27.40
2014,08,11,17,11,27.50
2014,08,11,17,12,27.50
2014,08,11,17,13,27.60
2014,08,11,17,14,27.60
2014,08,11,17,15,27.70
2014,08,11,17,16,27.70
2014,08,11,17,17,27.70
2014,08,11,17,18,27.80
2014,08,11,17,19,27.80
2014,08,11,17,20,27.80
2014,08,11,17,21,27.80
2014,08,11,17,22,27.80
2014,08,11,17,23,27.80